TimeCST,TemperatureF,Dew PointF,Humidity,Sea Level PressureIn,VisibilityMPH,Wind Direction,Wind SpeedMPH,Gust SpeedMPH,PrecipitationIn,Events,Conditions,WindDirDegrees,DateUTC
12:10 AM,28.4,21.2,74,30.20,10.0,NNW,10.4,-,N/A,,Overcast,330,2013-03-01 06:10:00
12:53 AM,28.0,21.0,75,30.23,10.0,NW,11.5,-,N/A,,Overcast,320,2013-03-01 06:53:00
1:53 AM,28.0,21.0,75,30.23,10.0,NW,9.2,-,N/A,,Overcast,310,2013-03-01 07:53:00
2:03 AM,28.4,21.2,74,30.20,10.0,NW,11.5,-,N/A,,Overcast,310,2013-03-01 08:03:00
2:53 AM,27.0,21.0,78,30.23,10.0,NNW,11.5,-,N/A,,Overcast,330,2013-03-01 08:53:00
3:53 AM,27.0,21.0,78,30.22,10.0,NW,11.5,-,N/A,,Overcast,320,2013-03-01 09:53:00
4:53 AM,27.0,19.9,75,30.24,10.0,NNW,13.8,-,N/A,,Overcast,330,2013-03-01 10:53:00
5:53 AM,27.0,19.0,72,30.25,10.0,NNW,18.4,-,N/A,,Overcast,340,2013-03-01 11:53:00
6:53 AM,27.0,19.0,72,30.25,10.0,NNW,17.3,-,N/A,,Overcast,340,2013-03-01 12:53:00
8:26 AM,26.6,19.4,74,30.24,7.0,NNW,13.8,-,N/A,,Overcast,330,2013-03-01 14:26:00
8:53 AM,27.0,19.9,75,30.27,6.0,NNW,12.7,-,0.00,Snow,Light Snow,330,2013-03-01 14:53:00
9:42 AM,26.6,21.2,80,30.26,4.0,NNW,12.7,-,0.00,Snow,Light Snow,340,2013-03-01 15:42:00
9:53 AM,27.0,21.0,78,30.29,3.0,NNW,12.7,-,0.00,Snow,Light Snow,340,2013-03-01 15:53:00
10:53 AM,28.0,21.0,75,30.29,4.0,NNW,16.1,-,0.00,Snow,Light Snow,340,2013-03-01 16:53:00
11:26 AM,28.4,21.2,74,30.26,7.0,NNW,15.0,-,0.00,Snow,Light Snow,340,2013-03-01 17:26:00
11:53 AM,30.0,21.0,69,30.29,9.0,North,13.8,-,0.00,,Overcast,360,2013-03-01 17:53:00
12:53 PM,30.0,21.0,69,30.28,10.0,North,15.0,-,N/A,,Overcast,350,2013-03-01 18:53:00
1:53 PM,30.9,19.9,64,30.27,10.0,North,16.1,-,N/A,,Overcast,350,2013-03-01 19:53:00
3:53 PM,28.9,19.9,69,30.30,10.0,North,18.4,-,N/A,,Overcast,350,2013-03-01 21:53:00
5:53 PM,28.0,19.9,72,30.31,10.0,North,10.4,-,N/A,,Overcast,360,2013-03-01 23:53:00
6:53 PM,26.1,19.0,75,30.34,10.0,North,8.1,-,N/A,,Overcast,350,2013-03-02 00:53:00
7:53 PM,26.1,18.0,71,30.35,10.0,North,12.7,-,N/A,,Overcast,350,2013-03-02 01:53:00
8:53 PM,21.9,15.1,75,30.35,10.0,North,6.9,-,N/A,,Clear,350,2013-03-02 02:53:00
9:53 PM,19.9,15.1,81,30.37,10.0,North,5.8,-,N/A,,Mostly Cloudy,350,2013-03-02 03:53:00
10:53 PM,24.1,18.0,77,30.37,10.0,North,8.1,-,N/A,,Overcast,10,2013-03-02 04:53:00
11:53 PM,25.0,17.1,72,30.37,10.0,North,10.4,-,N/A,,Overcast,350,2013-03-02 05:53:00